When you browse on this site, cookies collect data to enhance your experience and personalize the content and advertising you see.
Visit our Privacy Policy to learn more. By continuing to use the site, you agree to this use of cookies and data.
  • In Österreich
  • Länderverzeichnis
  • Für 7 Tage
  • Wassertemperatur
  • Satellitenkarten
  • Wetterkarte
  • News
  • Widgets
  • user-avatar
    Anmelden

    Stündliche Wetter San Luis

    Heute, 18 Februar, Montag

    Zeit Temperatur Niederschläge Wind Luftdruck Luftfeuchtigkeit
    00:00 +26°C° 0 mm 7 m/S 694 mmHg 48%
    01:00 +26°C° 0 mm 8 m/S 694 mmHg 51%
    02:00 +26°C° 0 mm 10 m/S 694 mmHg 55%
    03:00 +26°C° 0 mm 10 m/S 694 mmHg 56%
    04:00 +24°C° 0 mm 10 m/S 694 mmHg 56%
    05:00 +24°C° 0 mm 10 m/S 694 mmHg 57%
    06:00 +26°C° 0 mm 9 m/S 694 mmHg 54%
    07:00 +27°C° 0 mm 9 m/S 695 mmHg 51%
    08:00 +28°C° 0 mm 10 m/S 695 mmHg 52%
    09:00 +29°C° 0 mm 8 m/S 696 mmHg 46%
    10:00 +32°C° 0 mm 6 m/S 696 mmHg 39%
    11:00 +34°C° 0 mm 4 m/S 696 mmHg 33%
    12:00 +35°C° 0 mm 3 m/S 696 mmHg 30%
    13:00 +36°C° 0 mm 2 m/S 696 mmHg 27%
    14:00 +36°C° 0 mm 1 m/S 696 mmHg 24%
    15:00 +37°C° 0 mm 1 m/S 695 mmHg 23%
    16:00 +38°C° 0 mm 2 m/S 695 mmHg 22%
    17:00 +38°C° 0 mm 2 m/S 695 mmHg 21%
    18:00 +36°C° 0 mm 2 m/S 694 mmHg 25%
    19:00 +33°C° 0 mm 3 m/S 694 mmHg 29%
    20:00 +30°C° 0 mm 3 m/S 694 mmHg 33%
    21:00 +29°C° 0 mm 3 m/S 694 mmHg 35%
    22:00 +28°C° 0 mm 3 m/S 695 mmHg 38%
    23:00 +28°C° 0 mm 3 m/S 695 mmHg 41%

    Morgen, 19 Februar, Dienstag

    Zeit Temperatur Niederschläge Wind Luftdruck Luftfeuchtigkeit
    00:00 +28°C° 0.1 mm 3 m/S 695 mmHg 41%
    01:00 +27°C° 0.1 mm 3 m/S 695 mmHg 41%
    02:00 +27°C° 0.1 mm 3 m/S 695 mmHg 41%
    03:00 +27°C° 0 mm 3 m/S 695 mmHg 41%
    04:00 +26°C° 0 mm 3 m/S 695 mmHg 42%
    05:00 +26°C° 0 mm 3 m/S 695 mmHg 42%
    06:00 +27°C° 0 mm 4 m/S 695 mmHg 41%
    07:00 +29°C° 0 mm 5 m/S 696 mmHg 39%
    08:00 +30°C° 0 mm 6 m/S 697 mmHg 37%
    09:00 +33°C° 0 mm 5 m/S 697 mmHg 34%
    10:00 +35°C° 0 mm 4 m/S 697 mmHg 30%
    11:00 +36°C° 0 mm 3 m/S 697 mmHg 27%
    12:00 +37°C° 0 mm 4 m/S 697 mmHg 25%
    13:00 +38°C° 0 mm 4 m/S 696 mmHg 23%
    14:00 +40°C° 0 mm 4 m/S 695 mmHg 22%
    15:00 +38°C° 0 mm 3 m/S 695 mmHg 22%
    16:00 +38°C° 0 mm 3 m/S 694 mmHg 22%
    17:00 +38°C° 0 mm 3 m/S 694 mmHg 21%
    18:00 +36°C° 0 mm 3 m/S 693 mmHg 25%
    19:00 +33°C° 0 mm 3 m/S 693 mmHg 30%
    20:00 +30°C° 0 mm 2 m/S 693 mmHg 34%
    21:00 +29°C° 0.2 mm 3 m/S 693 mmHg 34%
    22:00 +29°C° 0.2 mm 3 m/S 694 mmHg 35%
    23:00 +29°C° 0.2 mm 3 m/S 694 mmHg 35%

    übermorgen, 20 Februar, Mittwoch

    Zeit Temperatur Niederschläge Wind Luftdruck Luftfeuchtigkeit
    00:00 +29°C° 0 mm 4 m/S 694 mmHg 35%
    01:00 +29°C° 0 mm 5 m/S 694 mmHg 35%
    02:00 +29°C° 0 mm 6 m/S 694 mmHg 35%
    03:00 +29°C° 0 mm 7 m/S 694 mmHg 36%
    04:00 +29°C° 0 mm 8 m/S 694 mmHg 38%
    05:00 +29°C° 0 mm 9 m/S 694 mmHg 39%
    06:00 +31°C° 0 mm 9 m/S 694 mmHg 37%
    07:00 +32°C° 0 mm 9 m/S 695 mmHg 36%
    08:00 +33°C° 0 mm 10 m/S 695 mmHg 35%
    09:00 +34°C° 0 mm 9 m/S 695 mmHg 31%
    10:00 +37°C° 0 mm 9 m/S 695 mmHg 28%
    11:00 +39°C° 0 mm 8 m/S 695 mmHg 24%
    12:00 +40°C° 0 mm 8 m/S 695 mmHg 23%
    13:00 +40°C° 0 mm 7 m/S 694 mmHg 21%
    14:00 +41°C° 0 mm 7 m/S 694 mmHg 19%
    15:00 +41°C° 0 mm 7 m/S 693 mmHg 18%
    16:00 +41°C° 0 mm 6 m/S 693 mmHg 18%
    17:00 +41°C° 0 mm 6 m/S 692 mmHg 17%
    18:00 +37°C° 0 mm 5 m/S 692 mmHg 21%
    19:00 +35°C° 0 mm 4 m/S 692 mmHg 25%
    20:00 +31°C° 0 mm 3 m/S 692 mmHg 28%
    21:00 +30°C° 0 mm 3 m/S 692 mmHg 31%
    22:00 +29°C° 0 mm 4 m/S 693 mmHg 34%
    23:00 +28°C° 0 mm 4 m/S 693 mmHg 37%

    21 Februar, Donnerstag

    Zeit Temperatur Niederschläge Wind Luftdruck Luftfeuchtigkeit
    00:00 +28°C° 0 mm 4 m/S 693 mmHg 40%
    01:00 +28°C° 0 mm 4 m/S 693 mmHg 42%
    02:00 +27°C° 0 mm 4 m/S 694 mmHg 44%
    03:00 +26°C° 0 mm 4 m/S 694 mmHg 48%
    04:00 +25°C° 0 mm 3 m/S 694 mmHg 53%
    05:00 +24°C° 0 mm 3 m/S 694 mmHg 57%
    06:00 +26°C° 0 mm 3 m/S 694 mmHg 53%
    07:00 +27°C° 0 mm 4 m/S 695 mmHg 50%
    08:00 +28°C° 0 mm 4 m/S 696 mmHg 47%
    09:00 +32°C° 0 mm 4 m/S 697 mmHg 42%
    10:00 +34°C° 0 mm 4 m/S 697 mmHg 36%
    11:00 +36°C° 0 mm 3 m/S 698 mmHg 31%
    12:00 +37°C° 0 mm 3 m/S 697 mmHg 29%
    13:00 +38°C° 0 mm 3 m/S 697 mmHg 28%
    14:00 +38°C° 0 mm 2 m/S 696 mmHg 26%
    15:00 +38°C° 0 mm 3 m/S 696 mmHg 27%
    16:00 +38°C° 0 mm 4 m/S 695 mmHg 28%
    17:00 +39°C° 0 mm 5 m/S 694 mmHg 28%
    18:00 +36°C° 0 mm 5 m/S 695 mmHg 33%
    19:00 +34°C° 0 mm 5 m/S 695 mmHg 38%
    20:00 +32°C° 0 mm 5 m/S 695 mmHg 43%
    21:00 +30°C° 0 mm 6 m/S 695 mmHg 47%
    22:00 +29°C° 0 mm 6 m/S 696 mmHg 50%
    23:00 +28°C° 0 mm 7 m/S 696 mmHg 54%

    22 Februar, Freitag

    Zeit Temperatur Niederschläge Wind Luftdruck Luftfeuchtigkeit
    00:00 +27°C° 0 mm 8 m/S 696 mmHg 60%
    01:00 +26°C° 0 mm 8 m/S 696 mmHg 65%
    02:00 +24°C° 0 mm 9 m/S 696 mmHg 70%
    03:00 +23°C° 0 mm 8 m/S 696 mmHg 72%
    04:00 +23°C° 0 mm 8 m/S 696 mmHg 73%
    05:00 +22°C° 0 mm 7 m/S 696 mmHg 75%
    06:00 +23°C° 0 mm 7 m/S 697 mmHg 71%
    07:00 +24°C° 0 mm 7 m/S 697 mmHg 68%
    08:00 +26°C° 0 mm 7 m/S 698 mmHg 64%
    09:00 +28°C° 0 mm 7 m/S 698 mmHg 58%
    10:00 +30°C° 0 mm 6 m/S 698 mmHg 52%
    11:00 +33°C° 0 mm 6 m/S 699 mmHg 45%
    12:00 +34°C° 0 mm 6 m/S 698 mmHg 44%
    13:00 +35°C° 0 mm 7 m/S 698 mmHg 42%
    14:00 +35°C° 0 mm 7 m/S 697 mmHg 41%
    15:00 +34°C° 0 mm 8 m/S 697 mmHg 45%
    16:00 +33°C° 0 mm 9 m/S 696 mmHg 50%
    17:00 +32°C° 0 mm 10 m/S 695 mmHg 55%
    18:00 +29°C° 0 mm 10 m/S 695 mmHg 63%
    19:00 +27°C° 0 mm 9 m/S 696 mmHg 72%
    20:00 +24°C° 0 mm 9 m/S 696 mmHg 81%
    21:00 +24°C° 0.1 mm 8 m/S 696 mmHg 80%
    22:00 +24°C° 0.1 mm 8 m/S 696 mmHg 80%
    23:00 +24°C° 0.1 mm 7 m/S 696 mmHg 80%

    23 Februar, Samstag

    Zeit Temperatur Niederschläge Wind Luftdruck Luftfeuchtigkeit
    00:00 +23°C° 0.1 mm 6 m/S 696 mmHg 81%
    01:00 +23°C° 0.1 mm 5 m/S 695 mmHg 81%
    02:00 +22°C° 0.1 mm 3 m/S 695 mmHg 82%
    03:00 +22°C° 0.4 mm 3 m/S 694 mmHg 83%
    04:00 +22°C° 0.4 mm 3 m/S 694 mmHg 84%
    05:00 +22°C° 0.4 mm 3 m/S 694 mmHg 85%
    06:00 +24°C° 0.1 mm 3 m/S 694 mmHg 79%
    07:00 +25°C° 0.1 mm 3 m/S 694 mmHg 74%
    08:00 +26°C° 0.1 mm 3 m/S 695 mmHg 69%
    09:00 +28°C° 0.1 mm 3 m/S 695 mmHg 62%
    10:00 +30°C° 0.1 mm 3 m/S 695 mmHg 54%
    11:00 +33°C° 0.1 mm 3 m/S 695 mmHg 47%
    12:00 +33°C° 0.1 mm 4 m/S 694 mmHg 47%
    13:00 +34°C° 0.1 mm 5 m/S 694 mmHg 47%
    14:00 +34°C° 0.1 mm 7 m/S 693 mmHg 46%
    15:00 +33°C° 0 mm 7 m/S 692 mmHg 52%
    16:00 +32°C° 0 mm 7 m/S 692 mmHg 57%
    17:00 +29°C° 0 mm 8 m/S 691 mmHg 63%
    18:00 +28°C° 0 mm 7 m/S 691 mmHg 69%
    19:00 +26°C° 0 mm 6 m/S 692 mmHg 76%
    20:00 +25°C° 0 mm 5 m/S 692 mmHg 82%
    21:00 +23°C° 0 mm 5 m/S 692 mmHg 84%
    22:00 +23°C° 0 mm 5 m/S 692 mmHg 86%
    23:00 +22°C° 0 mm 5 m/S 692 mmHg 88%
    Mehr zeigen